When you browse on this site, cookies collect data to enhance your experience and personalize the content and advertising you see.
Visit our Privacy Policy to learn more. By continuing to use the site, you agree to this use of cookies and data.
  • In Hungary
  • List of Countries
  • For 7 days
  • Water Temperature
  • Weather Map
  • News
  • Weather Widgets
  • user-avatar
    Login

    Hourly Weather Barczewo

    Today, 7 December, Saturday

    Time Temperature Precipitation Wind Pressure Humidity
    00:00 -1°C° 0.2 mm 6 mps 741 mmHg 67%
    01:00 -1°C° 0.2 mm 6 mps 741 mmHg 68%
    02:00 -1°C° 0.1 mm 6 mps 740 mmHg 68%
    03:00 -1°C° 0.1 mm 6 mps 740 mmHg 68%
    04:00 -1°C° 0.1 mm 6 mps 739 mmHg 68%
    05:00 -1°C° 0.5 mm 6 mps 739 mmHg 74%
    06:00 -2°C° 0.5 mm 6 mps 739 mmHg 81%
    07:00 -2°C° 0.5 mm 6 mps 738 mmHg 88%
    08:00 -1°C° 0.5 mm 6 mps 738 mmHg 88%
    09:00 +1°C° 0.5 mm 6 mps 738 mmHg 89%
    10:00 +1°C° 0.5 mm 6 mps 737 mmHg 90%
    11:00 +2°C° 0.3 mm 6 mps 737 mmHg 90%
    12:00 +3°C° 0.3 mm 7 mps 737 mmHg 89%
    13:00 +4°C° 0.3 mm 7 mps 736 mmHg 88%
    14:00 +4°C° 0.6 mm 7 mps 736 mmHg 88%
    15:00 +4°C° 0.6 mm 7 mps 737 mmHg 88%
    16:00 +4°C° 0.6 mm 7 mps 737 mmHg 87%
    17:00 +4°C° 0 mm 7 mps 737 mmHg 83%
    18:00 +4°C° 0 mm 6 mps 738 mmHg 79%
    19:00 +3°C° 0 mm 6 mps 738 mmHg 74%
    20:00 +3°C° 0.1 mm 6 mps 738 mmHg 76%
    21:00 +3°C° 0.1 mm 6 mps 739 mmHg 78%
    22:00 +3°C° 0.1 mm 6 mps 739 mmHg 80%
    23:00 +2°C° 0 mm 6 mps 739 mmHg 78%

    Tomorrow, 8 December, Sunday

    Time Temperature Precipitation Wind Pressure Humidity
    00:00 +2°C° 0 mm 6 mps 740 mmHg 77%
    01:00 +2°C° 0 mm 6 mps 740 mmHg 75%
    02:00 +1°C° 0 mm 6 mps 740 mmHg 78%
    03:00 +1°C° 0 mm 6 mps 740 mmHg 81%
    04:00 +1°C° 0 mm 5 mps 741 mmHg 85%
    05:00 +1°C° 0 mm 5 mps 741 mmHg 87%
    06:00 +1°C° 0 mm 4 mps 741 mmHg 90%
    07:00 +1°C° 0 mm 4 mps 741 mmHg 92%
    08:00 +3°C° 0.1 mm 4 mps 741 mmHg 92%
    09:00 +4°C° 0.1 mm 4 mps 741 mmHg 92%
    10:00 +3°C° 0.1 mm 5 mps 741 mmHg 91%
    11:00 +5°C° 0.1 mm 5 mps 740 mmHg 89%
    12:00 +5°C° 0.1 mm 5 mps 740 mmHg 86%
    13:00 +4°C° 0.1 mm 6 mps 739 mmHg 83%
    14:00 +4°C° 0 mm 6 mps 739 mmHg 82%
    15:00 +4°C° 0 mm 6 mps 738 mmHg 81%
    16:00 +4°C° 0 mm 7 mps 738 mmHg 80%
    17:00 +4°C° 0 mm 7 mps 737 mmHg 79%
    18:00 +4°C° 0 mm 7 mps 737 mmHg 78%
    19:00 +4°C° 0 mm 7 mps 736 mmHg 77%
    20:00 +4°C° 0.1 mm 7 mps 736 mmHg 79%
    21:00 +5°C° 0.1 mm 7 mps 735 mmHg 82%
    22:00 +5°C° 0.1 mm 7 mps 735 mmHg 85%
    23:00 +5°C° 0 mm 7 mps 735 mmHg 85%

    Day after tomorrow, 9 December, Monday

    Time Temperature Precipitation Wind Pressure Humidity
    00:00 +5°C° 0 mm 7 mps 735 mmHg 86%
    01:00 +7°C° 0 mm 6 mps 734 mmHg 86%
    02:00 +5°C° 0 mm 6 mps 734 mmHg 87%
    03:00 +6°C° 0 mm 5 mps 734 mmHg 88%
    04:00 +6°C° 0 mm 5 mps 734 mmHg 88%
    05:00 +5°C° 0 mm 4 mps 734 mmHg 88%
    06:00 +5°C° 0 mm 4 mps 734 mmHg 87%
    07:00 +5°C° 0 mm 4 mps 734 mmHg 86%
    08:00 +5°C° 0 mm 4 mps 734 mmHg 85%
    09:00 +5°C° 0 mm 5 mps 735 mmHg 83%
    10:00 +5°C° 0 mm 5 mps 735 mmHg 81%
    11:00 +5°C° 0 mm 5 mps 735 mmHg 78%
    12:00 +5°C° 0 mm 5 mps 735 mmHg 76%
    13:00 +6°C° 0 mm 5 mps 735 mmHg 73%
    14:00 +5°C° 0 mm 5 mps 735 mmHg 76%
    15:00 +4°C° 0 mm 4 mps 735 mmHg 78%
    16:00 +4°C° 0 mm 4 mps 735 mmHg 81%
    17:00 +4°C° 0 mm 4 mps 735 mmHg 81%
    18:00 +3°C° 0 mm 4 mps 735 mmHg 81%
    19:00 +3°C° 0 mm 4 mps 736 mmHg 81%
    20:00 +3°C° 0 mm 4 mps 736 mmHg 81%
    21:00 +3°C° 0 mm 4 mps 736 mmHg 81%
    22:00 +3°C° 0 mm 4 mps 736 mmHg 81%
    23:00 +3°C° 0 mm 4 mps 736 mmHg 82%

    10 December, Tuesday

    Time Temperature Precipitation Wind Pressure Humidity
    00:00 +3°C° 0 mm 4 mps 736 mmHg 83%
    01:00 +3°C° 0 mm 4 mps 736 mmHg 84%
    02:00 +3°C° 0 mm 4 mps 736 mmHg 85%
    03:00 +3°C° 0 mm 4 mps 736 mmHg 86%
    04:00 +3°C° 0 mm 4 mps 736 mmHg 87%
    05:00 +3°C° 0 mm 4 mps 737 mmHg 87%
    06:00 +3°C° 0 mm 4 mps 737 mmHg 88%
    07:00 +3°C° 0 mm 4 mps 737 mmHg 88%
    08:00 +3°C° 0 mm 4 mps 738 mmHg 87%
    09:00 +3°C° 0 mm 4 mps 739 mmHg 87%
    10:00 +4°C° 0 mm 4 mps 739 mmHg 86%
    11:00 +4°C° 0.2 mm 4 mps 740 mmHg 88%
    12:00 +3°C° 0.2 mm 4 mps 741 mmHg 89%
    13:00 +3°C° 0.2 mm 4 mps 742 mmHg 91%
    14:00 +2°C° 0.3 mm 5 mps 743 mmHg 86%
    15:00 +1°C° 0.3 mm 6 mps 744 mmHg 80%
    16:00 +1°C° 0.3 mm 6 mps 745 mmHg 75%
    17:00 -1°C° 0 mm 6 mps 746 mmHg 72%
    18:00 0°C° 0 mm 5 mps 747 mmHg 69%
    19:00 -1°C° 0 mm 4 mps 749 mmHg 65%
    20:00 -1°C° 0 mm 4 mps 749 mmHg 69%
    21:00 -1°C° 0 mm 3 mps 750 mmHg 73%
    22:00 -1°C° 0 mm 3 mps 751 mmHg 77%
    23:00 -1°C° 0 mm 3 mps 751 mmHg 78%

    11 December, Wednesday

    Time Temperature Precipitation Wind Pressure Humidity
    00:00 -1°C° 0 mm 3 mps 752 mmHg 79%
    01:00 -1°C° 0 mm 3 mps 752 mmHg 79%
    02:00 -2°C° 0 mm 3 mps 752 mmHg 79%
    03:00 -2°C° 0 mm 3 mps 753 mmHg 78%
    04:00 -2°C° 0 mm 2 mps 753 mmHg 77%
    05:00 -2°C° 0 mm 2 mps 753 mmHg 77%
    06:00 -2°C° 0 mm 2 mps 753 mmHg 77%
    07:00 -2°C° 0 mm 2 mps 753 mmHg 76%
    08:00 -1°C° 0 mm 2 mps 753 mmHg 72%
    09:00 -1°C° 0 mm 2 mps 754 mmHg 68%
    10:00 0°C° 0 mm 3 mps 754 mmHg 65%
    11:00 0°C° 0 mm 3 mps 753 mmHg 61%
    12:00 -1°C° 0 mm 4 mps 753 mmHg 57%
    13:00 0°C° 0 mm 4 mps 753 mmHg 54%
    14:00 -1°C° 0 mm 4 mps 752 mmHg 56%
    15:00 -1°C° 0 mm 4 mps 752 mmHg 58%
    16:00 -2°C° 0 mm 4 mps 752 mmHg 60%
    17:00 -2°C° 0 mm 4 mps 752 mmHg 60%
    18:00 -2°C° 0 mm 5 mps 751 mmHg 59%
    19:00 -2°C° 0 mm 5 mps 751 mmHg 59%
    20:00 -2°C° 0 mm 5 mps 751 mmHg 58%
    21:00 -2°C° 0 mm 5 mps 751 mmHg 57%
    22:00 -3°C° 0 mm 6 mps 751 mmHg 56%
    23:00 -3°C° 0 mm 6 mps 750 mmHg 55%

    12 December, Thursday

    Time Temperature Precipitation Wind Pressure Humidity
    00:00 -3°C° 0 mm 6 mps 750 mmHg 55%
    01:00 -3°C° 0 mm 6 mps 749 mmHg 54%
    02:00 -4°C° 0 mm 6 mps 749 mmHg 55%
    03:00 -4°C° 0 mm 6 mps 749 mmHg 55%
    04:00 -4°C° 0 mm 6 mps 748 mmHg 55%
    05:00 -4°C° 0 mm 5 mps 748 mmHg 57%
    06:00 -4°C° 0 mm 5 mps 748 mmHg 59%
    07:00 -4°C° 0 mm 5 mps 748 mmHg 60%
    08:00 -4°C° 0 mm 5 mps 748 mmHg 61%
    09:00 -4°C° 0 mm 5 mps 748 mmHg 62%
    10:00 -4°C° 0 mm 5 mps 748 mmHg 63%
    11:00 -2°C° 0 mm 5 mps 747 mmHg 63%
    12:00 -2°C° 0 mm 5 mps 747 mmHg 64%
    13:00 -1°C° 0 mm 5 mps 746 mmHg 64%
    14:00 -2°C° 0 mm 4 mps 746 mmHg 67%
    15:00 -2°C° 0 mm 4 mps 746 mmHg 70%
    16:00 -2°C° 0 mm 3 mps 746 mmHg 74%
    17:00 -3°C° 0 mm 4 mps 746 mmHg 75%
    18:00 -3°C° 0 mm 4 mps 745 mmHg 77%
    19:00 -3°C° 0 mm 4 mps 745 mmHg 79%
    20:00 -3°C° 0 mm 4 mps 745 mmHg 79%
    21:00 -2°C° 0 mm 3 mps 744 mmHg 79%
    22:00 -2°C° 0 mm 3 mps 744 mmHg 79%
    23:00 -2°C° 0 mm 3 mps 744 mmHg 78%
    Show more